Date_and_time,latitude,longitude,wind_speed,RelWindDirFrom,WindDirFrom,air_pressure,air_temperature,relative_humidity,Temp,platform_speed_wrt_ground,air_pressure_at_mean_sea_level,platform_orientation
2019-12-11 23:40,50.6304366666667,-96.9807533333333,3.5,5.1,233,999.17,-18.5,61,0.46,0.0,1029.31,270.0
2019-12-11 23:50,50.6304466666667,-96.98076,3.6,4.5,244,999.17,-18.5,60,0.47,0.0,1029.34,270.0
2019-12-12 00:00,50.6304483333333,-96.9807533333333,3.4,4.6,252,999.18,-18.6,59,0.47,0.0,1029.38,60.8
2019-12-12 00:00,50.6304483333333,-96.9807516666667,3.3,3.3,253,999.21,-18.5,59,0.47,0.0,1029.42,75.8
2019-12-12 00:10,50.6304433333333,-96.9807633333333,3.4,4.2,250,999.19,-18.5,59,0.48,0.0,1029.40,75.8
2019-12-12 00:20,50.630445,-96.9807633333333,3.2,4.4,241,999.21,-18.6,59,0.48,0.0,1029.44,75.8
2019-12-12 00:30,50.6304466666667,-96.9807616666667,2.9,4.0,229,999.20,-18.7,62,0.48,0.0,1029.44,75.8
2019-12-12 00:40,50.6304566666667,-96.9807633333333,3.1,3.9,227,999.15,-18.8,61,0.48,0.0,1029.41,75.8
2019-12-12 00:50,50.63047,-96.9807233333333,3.2,4.7,224,999.14,-18.9,62,0.48,0.0,1029.40,75.8
2019-12-12 01:00,50.630465,-96.9808066666667,3.9,4.9,232,999.16,-19.0,61,0.48,0.0,1029.43,316.2
2019-12-12 01:10,50.630455,-96.98078,4.2,5.4,236,999.18,-19.0,61,0.48,0.0,1029.46,316.2
2019-12-12 01:20,50.6304483333333,-96.980775,5.0,6.6,243,999.16,-19.1,61,0.48,0.0,1029.45,316.2
2019-12-12 01:30,50.6304466666667,-96.9807633333333,5.6,8.1,248,999.16,-19.3,61,0.48,0.0,1029.46,316.2
2019-12-12 01:40,50.63045,-96.9807666666667,5.4,8.3,258,999.18,-19.4,61,0.48,0.0,1029.50,316.2
2019-12-12 01:50,50.63045,-96.9807666666667,5.4,8.6,245,999.16,-19.6,61,0.48,0.0,1029.48,316.2
2019-12-12 02:00,50.63045,-96.9807683333333,4.7,6.2,254,999.18,-19.7,61,0.48,0.0,1029.51,305.3
2019-12-12 02:10,50.63046,-96.9807583333333,4.1,5.6,261,999.24,-19.7,62,0.48,0.0,1029.58,305.3
2019-12-12 02:20,50.630455,-96.9807716666667,3.9,5.8,252,999.29,-19.8,62,0.48,0.0,1029.64,305.3
2019-12-12 02:30,50.630455,-96.980765,3.5,4.6,250,999.23,-20.1,63,0.48,0.0,1029.61,305.3
2019-12-12 02:40,50.6304566666667,-96.9807633333333,2.8,4.1,257,999.15,-20.0,63,0.48,0.0,1029.53,305.3
2019-12-12 02:50,50.6304566666667,-96.9807633333333,2.5,3.7,240,999.19,-20.1,63,0.48,0.0,1029.58,305.3
2019-12-12 03:00,50.6304566666667,-96.9807616666667,2.3,2.9,236,999.17,-20.4,65,0.48,0.0,1029.57,311.7
2019-12-12 03:10,50.630455,-96.98076,2.2,2.8,230,999.16,-20.4,66,0.49,0.0,1029.57,311.7
2019-12-12 03:20,50.630455,-96.9807633333333,2.7,3.6,242,999.10,-20.4,66,0.50,0.0,1029.52,311.7
2019-12-12 03:30,50.630455,-96.9807916666667,2.7,3.4,228,999.09,-20.5,67,0.50,0.0,1029.52,311.7
2019-12-12 03:40,50.6304566666667,-96.9807866666667,2.3,3.0,228,999.07,-20.5,66,0.50,0.0,1029.52,311.7
2019-12-12 03:50,50.6304383333333,-96.9807483333333,1.6,2.3,226,998.99,-20.6,67,0.51,0.0,1029.44,311.7
2019-12-12 04:00,50.630445,-96.98076,1.8,2.2,244,998.97,-20.5,66,0.50,0.0,1029.42,134.2
2019-12-12 04:10,50.63048,-96.980805,1.4,2.4,258,998.98,-20.4,67,0.49,0.0,1029.43,134.2
2019-12-12 04:20,50.630445,-96.980755,1.0,2.4,290,999.06,-20.3,67,0.49,0.0,1029.52,134.2
2019-12-12 04:30,50.6304483333333,-96.9807583333333,2.1,3.1,317,999.14,-20.2,67,0.49,0.0,1029.59,134.2
2019-12-12 04:40,50.630445,-96.9807633333333,1.4,2.1,256,999.23,-20.3,68,0.49,0.0,1029.70,134.2
2019-12-12 04:50,50.6304283333333,-96.9807466666667,1.4,2.8,300,999.21,-20.4,68,0.49,0.0,1029.70,134.2
2019-12-12 05:00,50.6304416666667,-96.9807733333333,1.1,2.9,215,999.30,-20.6,69,0.49,0.0,1029.81,360.0
2019-12-12 05:10,50.6304466666667,-96.9807633333333,1.8,3.1,215,999.38,-20.7,71,0.49,0.0,1029.89,360.0
2019-12-12 05:20,50.6304483333333,-96.9807616666667,1.3,1.7,252,999.38,-20.8,69,0.49,0.0,1029.90,360.0
2019-12-12 05:30,50.6304466666667,-96.9807633333333,1.0,1.7,262,999.43,-20.9,69,0.49,0.0,1029.96,360.0
2019-12-12 05:40,50.6304466666667,-96.9807616666667,1.5,2.4,258,999.39,-21.0,71,0.49,0.0,1029.93,360.0
2019-12-12 05:50,50.6304483333333,-96.9807616666667,2.3,2.8,254,999.45,-21.2,70,0.49,0.0,1030.00,360.0
2019-12-12 06:00,50.63045,-96.9807616666667,2.4,3.2,270,999.39,-20.9,68,0.49,0.0,1029.92,90.0
2019-12-12 06:10,50.630465,-96.9807683333333,3.0,4.2,252,999.35,-21.0,68,0.49,0.0,1029.87,90.0
2019-12-12 06:20,50.6304516666667,-96.98076,3.7,4.4,233,999.33,-21.5,70,0.49,0.0,1029.88,90.0
2019-12-12 06:30,50.6304466666667,-96.980755,3.6,5.4,208,999.33,-22.0,73,0.49,0.0,1029.92,90.0
2019-12-12 06:40,50.6304716666667,-96.980795,2.5,3.5,208,999.24,-22.1,74,0.49,0.0,1029.84,90.0
2019-12-12 06:50,50.6304383333333,-96.9807316666667,1.4,2.6,198,999.15,-22.0,75,0.49,0.0,1029.75,90.0
2019-12-12 07:00,50.6304566666667,-96.9807816666667,0.3,1.2,179,999.10,-21.9,75,0.49,0.0,1029.70,302.3
2019-12-12 07:10,50.6304583333333,-96.9807733333333,0.1,1.0,343,999.05,-21.5,75,0.49,0.0,1029.63,302.3
2019-12-12 07:20,50.6304566666667,-96.9807716666667,0.3,1.3,235,999.09,-21.6,76,0.49,0.0,1029.67,302.3
2019-12-12 07:30,50.6304566666667,-96.9807683333333,1.0,1.5,247,999.00,-21.6,75,0.49,0.0,1029.60,302.3
2019-12-12 07:40,50.6304566666667,-96.9807683333333,1.0,2.3,227,998.95,-21.5,75,0.49,0.0,1029.55,302.3
2019-12-12 07:50,50.6304683333333,-96.9807766666667,2.3,2.8,226,998.96,-21.8,75,0.49,0.0,1029.55,302.3
2019-12-12 08:00,50.6304616666667,-96.9807783333333,2.7,3.4,236,998.91,-21.8,75,0.49,0.0,1029.51,360.0
2019-12-12 08:10,50.6304866666667,-96.9807716666667,1.7,2.4,230,998.96,-21.6,75,0.49,0.0,1029.59,360.0
2019-12-12 08:20,50.6304733333333,-96.9807633333333,2.1,2.7,225,999.08,-21.7,75,0.49,0.0,1029.75,360.0
2019-12-12 08:30,50.63047,-96.9807633333333,2.6,2.9,220,999.16,-21.9,75,0.49,0.0,1029.84,360.0
2019-12-12 08:40,50.6304683333333,-96.9807633333333,2.0,2.7,247,999.14,-21.8,76,0.51,0.0,1029.81,360.0
2019-12-12 08:50,50.63044,-96.9807783333333,1.5,2.2,292,999.08,-21.9,76,0.53,0.0,1029.75,360.0
2019-12-12 09:00,50.630465,-96.98077,1.3,2.0,234,999.10,-22.1,77,0.52,0.0,1029.75,336.5
2019-12-12 09:10,50.6304683333333,-96.9807766666667,1.8,2.7,242,999.11,-22.4,77,0.52,0.0,1029.79,336.5
2019-12-12 09:20,50.6304666666667,-96.980775,1.1,1.9,267,999.05,-22.4,77,0.51,0.0,1029.73,336.5
2019-12-12 09:30,50.6304666666667,-96.980775,1.2,2.2,234,999.00,-22.3,78,0.52,0.0,1029.67,336.5
2019-12-12 09:40,50.630465,-96.9807716666667,2.5,3.3,245,998.94,-22.6,77,0.53,0.0,1029.64,336.5
2019-12-12 09:50,50.6304633333333,-96.980765,2.5,3.1,245,998.87,-22.7,77,0.53,0.0,1029.57,336.5
2019-12-12 10:00,50.630465,-96.980765,2.0,2.9,256,998.81,-22.6,78,0.53,0.0,1029.50,31.1
2019-12-12 10:10,50.630465,-96.9807666666667,1.4,2.7,266,998.70,-22.6,77,0.53,0.0,1029.39,31.1
2019-12-12 10:20,50.63047,-96.98077,1.9,2.5,254,998.70,-22.6,77,0.52,0.0,1029.40,31.1
2019-12-12 10:30,50.6304566666667,-96.9807533333333,1.1,2.1,256,998.63,-22.6,77,0.52,0.0,1029.32,31.1
2019-12-12 10:40,50.6304566666667,-96.98076,0.8,2.0,277,998.64,-22.6,77,0.52,0.0,1029.34,31.1
2019-12-12 10:50,50.6304683333333,-96.980765,1.2,1.8,299,998.54,-22.4,78,0.52,0.0,1029.24,31.1
2019-12-12 11:00,50.6304616666667,-96.9807616666667,1.6,2.1,327,998.50,-22.1,78,0.51,0.0,1029.20,90.0
2019-12-12 11:10,50.6304583333333,-96.9807633333333,1.9,2.2,329,998.44,-21.8,78,0.51,0.0,1029.11,90.0
2019-12-12 11:20,50.6304633333333,-96.9807833333333,1.6,2.5,325,998.36,-21.7,77,0.50,0.0,1029.02,90.0
2019-12-12 11:30,50.6304516666667,-96.98077,2.4,2.8,349,998.22,-21.2,75,0.49,0.0,1028.86,90.0
2019-12-12 11:40,50.630455,-96.98076,1.8,2.4,348,998.21,-21.2,74,0.49,0.0,1028.86,90.0
2019-12-12 11:50,50.6304566666667,-96.9807616666667,1.1,1.8,7,998.19,-21.4,75,0.49,0.0,1028.84,90.0
2019-12-12 12:00,50.6304583333333,-96.98076,1.8,2.6,14,998.09,-21.7,76,0.48,0.0,1028.75,165.5
2019-12-12 12:10,50.6304583333333,-96.9807566666667,2.0,2.7,7,998.03,-21.5,76,0.48,0.0,1028.69,165.5
2019-12-12 12:20,50.6304466666667,-96.9807716666667,2.6,4.1,359,998.04,-21.5,76,0.48,0.0,1028.69,165.5
2019-12-12 12:30,50.6304516666667,-96.98077,3.9,4.4,6,997.92,-21.4,77,0.48,0.0,1028.57,165.5
2019-12-12 12:40,50.6304516666667,-96.98077,3.4,4.2,5,997.90,-21.1,78,0.48,0.0,1028.52,165.5
2019-12-12 12:50,50.630455,-96.98077,3.2,3.8,9,997.91,-21.0,78,0.48,0.0,1028.50,165.5
2019-12-12 13:00,50.630455,-96.98077,2.9,3.9,17,997.96,-21.0,78,0.48,0.0,1028.54,360.0
2019-12-12 13:10,50.63043,-96.98076,2.5,3.5,33,997.97,-20.8,77,0.48,0.0,1028.53,360.0
2019-12-12 13:20,50.6304516666667,-96.98078,2.2,4.1,27,997.87,-20.6,77,0.48,0.0,1028.37,360.0
2019-12-12 13:30,50.630445,-96.980765,2.6,3.8,23,997.78,-20.3,77,0.47,0.0,1028.27,360.0
2019-12-12 13:40,50.63045,-96.980765,5.2,6.7,66,997.69,-19.4,77,0.47,0.0,1028.14,360.0
2019-12-12 13:50,50.6304533333333,-96.9807666666667,5.6,6.9,82,997.68,-18.5,75,0.47,0.0,1028.09,360.0
2019-12-12 14:00,50.6304533333333,-96.9807633333333,6.4,7.5,81,997.58,-18.4,74,0.47,0.0,1027.97,360.0
2019-12-12 14:10,50.6304533333333,-96.9807666666667,5.2,6.4,97,997.68,-18.4,74,0.47,0.0,1028.07,360.0
2019-12-12 14:20,50.6304533333333,-96.9807666666667,5.7,6.9,105,997.81,-18.4,74,0.46,0.0,1028.20,360.0
2019-12-12 14:30,50.6304533333333,-96.980765,4.8,6.4,112,997.89,-18.4,73,0.46,0.0,1028.26,360.0
2019-12-12 14:40,50.6304533333333,-96.980765,2.2,4.4,163,997.90,-19.5,73,0.46,0.0,1028.33,360.0
2019-12-12 14:50,50.630495,-96.98079,2.4,5.9,115,997.84,-19.1,73,0.46,0.0,1028.25,360.0
2019-12-12 15:00,50.6304533333333,-96.9807516666667,3.7,6.4,115,997.79,-18.1,70,0.45,0.0,1028.12,167.4
2019-12-12 15:10,50.6304466666667,-96.9807516666667,3.3,6.1,124,997.80,-18.3,71,0.45,0.0,1028.13,167.4
2019-12-12 15:20,50.6304483333333,-96.980755,5.3,6.7,122,997.83,-17.7,69,0.46,0.0,1028.10,167.4
2019-12-12 15:30,50.6304483333333,-96.9807583333333,5.5,6.5,114,997.76,-17.5,68,0.45,0.0,1027.97,167.4
2019-12-12 15:40,50.6304483333333,-96.98076,5.6,6.7,118,997.73,-17.3,67,0.45,0.0,1027.87,167.4
2019-12-12 15:50,50.63045,-96.9807733333333,5.8,6.9,117,997.81,-17.2,67,0.45,0.0,1027.94,167.4
2019-12-12 16:00,50.6304516666667,-96.980765,6.2,7.8,126,997.83,-17.3,69,0.45,0.0,1027.97,90.0
2019-12-12 16:10,50.6304533333333,-96.9807683333333,6.8,8.2,131,997.81,-17.4,71,0.45,0.0,1027.96,90.0
2019-12-12 16:20,50.6304283333333,-96.9807783333333,6.9,8.1,127,997.76,-17.3,73,0.44,0.0,1027.89,90.0
2019-12-12 16:30,50.63044,-96.98078,6.8,8.9,134,997.68,-17.6,72,0.44,0.0,1027.90,90.0
2019-12-12 16:40,50.6304466666667,-96.9807783333333,7.4,8.9,145,997.62,-18.2,71,0.44,0.0,1027.85,90.0
2019-12-12 16:50,50.6304483333333,-96.980775,6.8,8.5,148,997.60,-18.5,70,0.43,0.0,1027.78,90.0
2019-12-12 17:00,50.6304533333333,-96.9807833333333,6.5,8.0,150,997.50,-18.7,71,0.43,0.0,1027.70,270.0
2019-12-12 17:10,50.6304483333333,-96.98077,6.7,8.1,150,997.46,-18.8,71,0.42,0.0,1027.63,270.0
2019-12-12 17:20,50.63045,-96.9807633333333,6.6,8.1,154,997.41,-18.6,71,0.42,0.0,1027.56,270.0
2019-12-12 17:30,50.6304516666667,-96.9807666666667,5.1,7.4,145,997.37,-18.2,70,0.42,0.0,1027.48,270.0
2019-12-12 17:40,50.63045,-96.9807666666667,4.6,5.9,145,997.17,-18.0,69,0.41,0.0,1027.26,270.0
2019-12-12 17:50,50.6304483333333,-96.9807666666667,4.4,6.4,138,996.95,-17.4,68,0.41,0.0,1027.01,270.0
2019-12-12 18:00,50.6304483333333,-96.9807683333333,4.8,6.5,142,996.73,-17.6,68,0.41,0.0,1026.80,240.8
2019-12-12 18:10,50.6304483333333,-96.9807683333333,4.3,5.7,132,996.54,-17.0,67,0.41,0.0,1026.56,240.8
2019-12-12 18:20,50.6304166666667,-96.980795,4.2,6.5,126,996.39,-16.3,66,0.42,0.0,1026.37,240.8
2019-12-12 18:30,50.6304366666667,-96.980785,4.1,5.9,124,996.22,-15.9,64,0.42,0.0,1026.21,240.8
2019-12-12 18:40,50.630435,-96.98078,4.2,5.9,132,996.08,-16.0,64,0.42,0.0,1026.09,240.8
2019-12-12 18:50,50.630435,-96.98078,4.3,6.3,123,995.98,-15.8,64,0.43,0.0,1025.99,240.8
2019-12-12 19:00,50.630435,-96.980775,4.5,6.3,114,995.98,-15.3,62,0.44,0.0,1025.97,360.0
2019-12-12 19:10,50.630435,-96.9807733333333,5.0,6.4,110,995.91,-15.7,65,0.44,0.0,1025.91,360.0
2019-12-12 19:20,50.6304366666667,-96.9807716666667,4.7,6.5,108,995.86,-16.1,65,0.45,0.0,1025.86,360.0
2019-12-12 19:30,50.6304383333333,-96.9807716666667,3.9,6.0,109,995.82,-16.1,65,0.46,0.0,1025.80,360.0
2019-12-12 19:40,50.6304383333333,-96.98077,3.8,5.4,105,995.64,-15.9,65,0.47,0.0,1025.58,360.0
2019-12-12 19:50,50.63044,-96.98077,3.9,5.8,97,995.48,-15.8,65,0.48,0.0,1025.41,360.0
2019-12-12 20:00,50.6304383333333,-96.9807716666667,4.6,6.8,91,995.17,-15.8,65,0.48,0.0,1025.06,131.7
2019-12-12 20:10,50.6304383333333,-96.9807716666667,5.1,6.5,90,994.85,-15.7,65,0.48,0.0,1024.68,131.7
2019-12-12 20:20,50.63044,-96.9807716666667,4.8,6.9,86,994.71,-15.1,62,0.49,0.0,1024.47,131.7
2019-12-12 20:30,50.6304383333333,-96.980765,5.3,7.0,85,994.66,-15.3,62,0.49,0.0,1024.44,131.7
2019-12-12 20:40,50.6304366666667,-96.980765,5.0,6.9,77,994.74,-14.9,61,0.50,0.0,1024.49,131.7
2019-12-12 20:50,50.6304366666667,-96.980765,5.0,6.8,67,994.73,-15.4,64,0.51,0.0,1024.48,131.7
2019-12-12 21:00,50.6304383333333,-96.9807666666667,4.5,6.3,63,994.78,-15.9,66,0.51,0.0,1024.58,142.0
2019-12-12 21:10,50.63044,-96.9807683333333,5.0,6.7,59,994.70,-16.0,67,0.51,0.0,1024.54,142.0
2019-12-12 21:20,50.6304416666667,-96.98077,5.7,7.9,54,994.61,-16.1,68,0.51,0.0,1024.44,142.0
2019-12-12 21:30,50.6304416666667,-96.9807716666667,6.3,7.7,56,994.51,-16.1,70,0.52,0.0,1024.33,142.0
2019-12-12 21:40,50.6304416666667,-96.9807716666667,6.3,8.0,59,994.50,-16.1,70,0.52,0.0,1024.32,142.0
2019-12-12 21:50,50.6304416666667,-96.9807716666667,6.5,8.4,57,994.36,-16.1,71,0.52,0.0,1024.17,142.0
2019-12-12 22:00,50.6304416666667,-96.9807733333333,7.9,9.3,55,994.15,-16.1,72,0.53,0.0,1023.95,38.0
2019-12-12 22:10,50.6304433333333,-96.9807733333333,6.4,7.8,49,994.19,-16.1,73,0.54,0.0,1023.95,38.0
2019-12-12 22:20,50.6304433333333,-96.9807733333333,5.7,7.2,38,994.16,-16.0,74,0.55,0.0,1023.93,38.0
2019-12-12 22:30,50.6304433333333,-96.9807733333333,4.8,6.5,43,994.06,-15.6,73,0.55,0.0,1023.78,38.0
2019-12-12 22:40,50.6304433333333,-96.9807733333333,4.1,6.7,41,994.01,-15.3,72,0.55,0.0,1023.74,38.0
2019-12-12 22:50,50.6304433333333,-96.9807733333333,5.4,7.5,76,993.92,-14.8,68,0.55,0.0,1023.64,38.0
2019-12-12 23:00,50.6304433333333,-96.9807716666667,6.2,8.4,79,993.81,-14.5,68,0.55,0.0,1023.52,90.0
2019-12-12 23:10,50.6304433333333,-96.9807716666667,6.0,7.9,81,993.92,-14.4,67,0.56,0.0,1023.63,90.0
2019-12-12 23:20,50.6304433333333,-96.98077,6.7,8.6,87,993.84,-14.2,67,0.56,0.0,1023.54,90.0
2019-12-12 23:30,50.63043,-96.9807633333333,7.7,9.4,82,993.71,-14.2,67,0.57,0.0,1023.40,90.0
2019-12-12 23:40,50.6304433333333,-96.98076,7.5,9.2,82,993.70,-14.1,68,0.57,0.0,1023.40,90.0
